Location: Jackson Park
(37.2862°N, 79.9123°W)
Time: 20:42:17
(UTC+00:00)

Vanguard 2 Rocket - Pass Details

Date: 14 May 2026
Orbit: 553 x 3286 km, 32.9° (Epoch: 6 June)

Event Time Altitude Azimuth Distance (km) Brightness Sun altitude
Rises 23:10:13 0° 284° (WNW) 7,206 13.6 12.4°
Reaches altitude 10° 23:15:52 10° 275° (W) 6,235 13.6 11.3°
Maximum altitude 23:31:43 32° 223° (SW) 4,269 10.7 8.3°
Drops below altitude 10° 23:44:22 10° 167° (SSE) 4,923 10.3 5.9°
Sets 23:48:14 0° 157° (SSE) 5,559 10.5 5.2°
